• In Moldova, Republic
  • List of Countries
  • For 7 days
  • Water Temperature
  • Satellite Maps
  • Weather Map
  • Weather Widgets
  • user-avatar
    Login

    Hourly Weather Linz

    Today, 21 February, Tuesday

    Time Temperature Precipitation Wind Pressure Humidity
    00:00 +2°C° 0.6 mm 5 mps 734 mmHg 93%
    01:00 +2°C° 0 mm 5 mps 733 mmHg 93%
    02:00 +2°C° 0.2 mm 5 mps 733 mmHg 93%
    03:00 +2°C° 0.2 mm 5 mps 733 mmHg 94%
    04:00 +3°C° 0.2 mm 5 mps 733 mmHg 94%
    05:00 +3°C° 0.2 mm 5 mps 732 mmHg 94%
    06:00 +3°C° 0.2 mm 5 mps 732 mmHg 95%
    07:00 +3°C° 0.2 mm 5 mps 732 mmHg 95%
    08:00 +5°C° 0.4 mm 5 mps 732 mmHg 95%
    09:00 +5°C° 0.4 mm 5 mps 731 mmHg 95%
    10:00 +6°C° 0.4 mm 5 mps 731 mmHg 94%
    11:00 +6°C° 1.2 mm 5 mps 731 mmHg 95%
    12:00 +6°C° 1.2 mm 5 mps 731 mmHg 96%
    13:00 +6°C° 1.2 mm 5 mps 731 mmHg 96%
    14:00 +6°C° 1.2 mm 5 mps 731 mmHg 97%
    15:00 +6°C° 1.2 mm 4 mps 731 mmHg 97%
    16:00 +6°C° 1.2 mm 4 mps 732 mmHg 97%
    17:00 +7°C° 0.7 mm 3 mps 732 mmHg 97%
    18:00 +5°C° 0.7 mm 3 mps 732 mmHg 97%
    19:00 +5°C° 0.7 mm 3 mps 733 mmHg 97%
    20:00 +5°C° 0.2 mm 3 mps 733 mmHg 97%
    21:00 +4°C° 0.2 mm 3 mps 733 mmHg 97%
    22:00 +4°C° 0.2 mm 3 mps 734 mmHg 97%
    23:00 +5°C° 0.1 mm 3 mps 734 mmHg 97%

    Tomorrow, 22 February, Wednesday

    Time Temperature Precipitation Wind Pressure Humidity
    00:00 +5°C° 0.1 mm 3 mps 733 mmHg 97%
    01:00 +5°C° 0.1 mm 3 mps 733 mmHg 97%
    02:00 +5°C° 0.3 mm 3 mps 733 mmHg 97%
    03:00 +7°C° 0.3 mm 3 mps 732 mmHg 97%
    04:00 +6°C° 0.3 mm 4 mps 732 mmHg 96%
    05:00 +6°C° 0.4 mm 4 mps 732 mmHg 96%
    06:00 +6°C° 0.4 mm 4 mps 731 mmHg 96%
    07:00 +6°C° 0.4 mm 4 mps 731 mmHg 95%
    08:00 +6°C° 0.3 mm 4 mps 731 mmHg 95%
    09:00 +7°C° 0.3 mm 5 mps 731 mmHg 94%
    10:00 +7°C° 0.3 mm 5 mps 731 mmHg 93%
    11:00 +8°C° 0 mm 6 mps 731 mmHg 91%
    12:00 +8°C° 0 mm 6 mps 730 mmHg 89%
    13:00 +9°C° 0 mm 7 mps 730 mmHg 87%
    14:00 +9°C° 0 mm 6 mps 730 mmHg 88%
    15:00 +8°C° 0 mm 6 mps 730 mmHg 88%
    16:00 +8°C° 0 mm 5 mps 729 mmHg 89%
    17:00 +8°C° 0 mm 5 mps 729 mmHg 90%
    18:00 +7°C° 0 mm 5 mps 730 mmHg 91%
    19:00 +6°C° 0 mm 5 mps 730 mmHg 92%
    20:00 +6°C° 0.1 mm 5 mps 730 mmHg 91%
    21:00 +6°C° 0.1 mm 5 mps 730 mmHg 91%
    22:00 +5°C° 0.1 mm 6 mps 730 mmHg 91%
    23:00 +6°C° 0.1 mm 5 mps 730 mmHg 90%

    Day after tomorrow, 23 February, Thursday

    Time Temperature Precipitation Wind Pressure Humidity
    00:00 +6°C° 0.1 mm 5 mps 730 mmHg 90%
    01:00 +6°C° 0.1 mm 5 mps 730 mmHg 90%
    02:00 +6°C° 0.1 mm 5 mps 729 mmHg 90%
    03:00 +6°C° 0.1 mm 5 mps 729 mmHg 90%
    04:00 +6°C° 0.1 mm 5 mps 729 mmHg 90%
    05:00 +6°C° 0 mm 4 mps 729 mmHg 90%
    06:00 +6°C° 0 mm 4 mps 729 mmHg 89%
    07:00 +5°C° 0 mm 4 mps 729 mmHg 89%
    08:00 +6°C° 0 mm 4 mps 729 mmHg 85%
    09:00 +7°C° 0 mm 4 mps 729 mmHg 81%
    10:00 +10°C° 0 mm 4 mps 729 mmHg 77%
    11:00 +11°C° 0 mm 4 mps 728 mmHg 73%
    12:00 +12°C° 0 mm 4 mps 727 mmHg 69%
    13:00 +13°C° 0 mm 4 mps 727 mmHg 65%
    14:00 +12°C° 0 mm 4 mps 726 mmHg 69%
    15:00 +12°C° 0 mm 3 mps 725 mmHg 72%
    16:00 +12°C° 0 mm 3 mps 725 mmHg 76%
    17:00 +10°C° 0 mm 3 mps 724 mmHg 81%
    18:00 +9°C° 0 mm 3 mps 724 mmHg 86%
    19:00 +7°C° 0 mm 3 mps 724 mmHg 91%
    20:00 +7°C° 0 mm 3 mps 724 mmHg 90%
    21:00 +6°C° 0 mm 4 mps 724 mmHg 89%
    22:00 +5°C° 0 mm 4 mps 724 mmHg 88%
    23:00 +5°C° 0 mm 4 mps 724 mmHg 88%

    24 February, Friday

    Time Temperature Precipitation Wind Pressure Humidity
    00:00 +5°C° 0 mm 4 mps 723 mmHg 88%
    01:00 +5°C° 0 mm 4 mps 723 mmHg 88%
    02:00 +5°C° 0.5 mm 4 mps 723 mmHg 89%
    03:00 +5°C° 0.5 mm 4 mps 723 mmHg 89%
    04:00 +4°C° 0.5 mm 4 mps 723 mmHg 90%
    05:00 +4°C° 1.3 mm 4 mps 723 mmHg 91%
    06:00 +3°C° 1.3 mm 5 mps 723 mmHg 92%
    07:00 +2°C° 1.3 mm 5 mps 724 mmHg 93%
    08:00 +2°C° 0.5 mm 6 mps 724 mmHg 91%
    09:00 +2°C° 0.5 mm 6 mps 725 mmHg 89%
    10:00 +3°C° 0.5 mm 7 mps 725 mmHg 88%
    11:00 +2°C° 0.2 mm 8 mps 725 mmHg 86%
    12:00 +2°C° 0.2 mm 8 mps 725 mmHg 84%
    13:00 +2°C° 0.2 mm 9 mps 725 mmHg 82%
    14:00 +3°C° 0.1 mm 7 mps 725 mmHg 83%
    15:00 +3°C° 0.1 mm 6 mps 725 mmHg 83%
    16:00 +2°C° 0.1 mm 5 mps 725 mmHg 84%
    17:00 +2°C° 0.6 mm 5 mps 725 mmHg 87%
    18:00 +1°C° 0.6 mm 6 mps 726 mmHg 90%
    19:00 +1°C° 0.6 mm 6 mps 726 mmHg 93%
    20:00 0°C° 0.2 mm 5 mps 728 mmHg 93%
    21:00 0°C° 0.2 mm 5 mps 729 mmHg 93%
    22:00 -1°C° 0.2 mm 5 mps 730 mmHg 93%
    23:00 -1°C° 0.1 mm 5 mps 731 mmHg 93%

    25 February, Saturday

    Time Temperature Precipitation Wind Pressure Humidity
    00:00 -1°C° 0.1 mm 5 mps 731 mmHg 94%
    01:00 -2°C° 0.1 mm 4 mps 732 mmHg 95%
    02:00 -2°C° 0.1 mm 5 mps 733 mmHg 95%
    03:00 -2°C° 0.1 mm 5 mps 734 mmHg 94%
    04:00 -1°C° 0.1 mm 5 mps 734 mmHg 94%
    05:00 -2°C° 0 mm 4 mps 735 mmHg 93%
    06:00 -2°C° 0 mm 4 mps 735 mmHg 93%
    07:00 -2°C° 0 mm 4 mps 736 mmHg 93%
    08:00 -1°C° 0 mm 4 mps 736 mmHg 91%
    09:00 0°C° 0 mm 4 mps 736 mmHg 89%
    10:00 +1°C° 0 mm 4 mps 736 mmHg 87%
    11:00 +3°C° 0.1 mm 4 mps 735 mmHg 87%
    12:00 +4°C° 0.1 mm 4 mps 734 mmHg 86%
    13:00 +5°C° 0.1 mm 4 mps 734 mmHg 86%
    14:00 +5°C° 0.3 mm 4 mps 733 mmHg 88%
    15:00 +5°C° 0.3 mm 4 mps 733 mmHg 90%
    16:00 +5°C° 0.3 mm 4 mps 732 mmHg 93%
    17:00 +5°C° 1.2 mm 4 mps 732 mmHg 94%
    18:00 +4°C° 1.2 mm 4 mps 732 mmHg 95%
    19:00 +4°C° 1.2 mm 4 mps 732 mmHg 96%
    20:00 +5°C° 1.6 mm 5 mps 732 mmHg 96%
    21:00 +5°C° 1.6 mm 5 mps 733 mmHg 96%
    22:00 +5°C° 1.6 mm 5 mps 733 mmHg 96%
    23:00 +5°C° 0.4 mm 5 mps 733 mmHg 96%

    26 February, Sunday

    Time Temperature Precipitation Wind Pressure Humidity
    00:00 +6°C° 0.4 mm 5 mps 733 mmHg 96%
    01:00 +6°C° 0.4 mm 5 mps 733 mmHg 95%
    02:00 +6°C° 0.1 mm 5 mps 733 mmHg 95%
    03:00 +6°C° 0.1 mm 5 mps 733 mmHg 95%
    04:00 +6°C° 0.1 mm 5 mps 733 mmHg 94%
    05:00 +6°C° 0.1 mm 5 mps 734 mmHg 94%
    06:00 +6°C° 0.1 mm 5 mps 734 mmHg 94%
    07:00 +6°C° 0.1 mm 5 mps 734 mmHg 94%
    08:00 +7°C° 0.1 mm 5 mps 735 mmHg 93%
    09:00 +7°C° 0.1 mm 6 mps 735 mmHg 92%
    10:00 +8°C° 0.1 mm 6 mps 735 mmHg 91%
    11:00 +8°C° 0 mm 6 mps 735 mmHg 91%
    12:00 +8°C° 0 mm 5 mps 735 mmHg 91%
    13:00 +8°C° 0 mm 5 mps 735 mmHg 90%
    14:00 +8°C° 0 mm 4 mps 735 mmHg 91%
    15:00 +8°C° 0 mm 4 mps 735 mmHg 91%
    16:00 +9°C° 0 mm 3 mps 735 mmHg 92%
    17:00 +8°C° 0 mm 3 mps 735 mmHg 93%
    18:00 +8°C° 0 mm 3 mps 735 mmHg 94%
    19:00 +7°C° 0 mm 2 mps 735 mmHg 96%
    20:00 +6°C° 0 mm 2 mps 735 mmHg 95%
    21:00 +6°C° 0 mm 2 mps 735 mmHg 95%
    22:00 +5°C° 0 mm 2 mps 735 mmHg 94%
    23:00 +5°C° 0 mm 2 mps 734 mmHg 94%
    Show more